Weather History for Hermiston, OR

Change the Weather History Date:

Friday, December 6, 2013

  Actual Average Record
Temperature  
Mean Temperature 11 °F -  
Max Temperature 21 °F 42 °F 62 °F (1933)
Min Temperature 1 °F 28 °F 1 °F (2013)
Degree Days  
Heating Degree Days 54    
Moisture  
Dew Point 8 °F    
Average Humidity 74    
Maximum Humidity 85    
Minimum Humidity 47    
Precipitation  
Precipitation 0.00 in - - ()
Sea Level Pressure  
Sea Level Pressure 30.24 in    
Wind  
Wind Speed 8 mph (East)    
Max Wind Speed 18 mph    
Max Gust Speed 29 mph    
Visibility 10 miles    
Events Snow    
Averages and records for this station are not official NWS values.
T = Trace of Precipitation, MM = Missing Value Source: NWS Daily Summary

Daily Weather History Graph

Daily Weather History Graph

Search for Another Location

Airport:

Trip Planner

Search our weather history database for the weather conditions in past years. The results will help you decide how hot, cold, wet, or windy it might be!

Date:

Astronomy

Dec. 06, 2013 Rise Set
Actual Time 7:23 AM PST 4:12 PM PST
Civil Twilight 6:49 AM PST 4:46 PM PST
Nautical Twilight 6:12 AM PST 5:24 PM PST
Astronomical Twilight 5:36 AM PST 6:00 PM PST
Moon 10:24 AM PST (12/6) 8:59 PM PST (12/6)
Length of Visible Light 9h 57m
Length of Day
8h 48m
Waxing Crescent, 20% of the Moon is Illuminated
Dec 6
Waxing Crescent
Dec 9
First Quarter
Dec 17
Full
Dec 25
Last Quarter
Jan 1
New

Hourly Weather History & Observations

Time (PST) Temp. Windchill Dew Point Humidity Pressure Visibility Wind Dir Wind Speed Gust Speed Precip Events Conditions
12:53 AM 6.1 °F -5.6 °F 1.9 °F 83% 30.33 in 10.0 mi SSE 6.9 mph - N/A   Clear
1:53 AM 6.1 °F -6.8 °F 1.0 °F 80% 30.33 in 10.0 mi SSE 8.1 mph - N/A   Clear
2:53 AM 3.9 °F -9.4 °F -0.0 °F 84% 30.34 in 10.0 mi South 8.1 mph - N/A   Clear
3:53 AM 1.9 °F -7.6 °F -2.0 °F 83% 30.33 in 10.0 mi SE 4.6 mph - N/A   Clear
4:53 AM 1.9 °F -7.6 °F -2.0 °F 83% 30.32 in 10.0 mi SE 4.6 mph - N/A   Clear
5:53 AM 3.0 °F -6.4 °F -0.9 °F 84% 30.32 in 10.0 mi SSE 4.6 mph - N/A   Mostly Cloudy
6:53 AM 6.1 °F -4.3 °F 1.0 °F 80% 30.31 in 10.0 mi South 5.8 mph - N/A   Overcast
7:53 AM 9.0 °F 2.4 °F 3.9 °F 80% 30.31 in 10.0 mi East 3.5 mph - N/A   Overcast
8:21 AM 10.9 °F - 6.1 °F 81% 30.27 in 10.0 mi Calm Calm - N/A   Overcast
8:53 AM 12.9 °F 6.9 °F 8.1 °F 81% 30.31 in 10.0 mi East 3.5 mph - N/A   Overcast
9:53 AM 16.0 °F 8.8 °F 12.0 °F 84% 30.31 in 10.0 mi ENE 4.6 mph - N/A   Mostly Cloudy
10:53 AM 19.0 °F 9.0 °F 12.0 °F 74% 30.30 in 10.0 mi ENE 8.1 mph - N/A   Mostly Cloudy
11:24 AM 19.9 °F 10.1 °F 10.9 °F 68% 30.25 in 10.0 mi NE 8.1 mph - N/A   Mostly Cloudy
11:31 AM 19.9 °F 8.6 °F 12.0 °F 71% 30.24 in 10.0 mi NE 10.4 mph - N/A   Overcast
11:53 AM 21.0 °F 10.6 °F 12.0 °F 68% 30.27 in 10.0 mi NE 9.2 mph - N/A   Overcast
12:23 PM 21.0 °F 11.4 °F 12.0 °F 68% 30.23 in 10.0 mi ENE 8.1 mph - N/A   Overcast
12:53 PM 21.0 °F 9.3 °F 10.9 °F 65% 30.24 in 10.0 mi NE 11.5 mph - N/A   Overcast
1:53 PM 21.0 °F 8.1 °F 10.9 °F 65% 30.22 in 10.0 mi ENE 13.8 mph - N/A   Mostly Cloudy
2:53 PM 19.9 °F 9.3 °F 12.0 °F 71% 30.20 in 10.0 mi ENE 9.2 mph - N/A   Overcast
3:53 PM 19.9 °F 12.1 °F 12.0 °F 71% 30.19 in 10.0 mi ESE 5.8 mph - N/A   Overcast
4:53 PM 19.9 °F 12.1 °F 14.0 °F 78% 30.18 in 10.0 mi SSE 5.8 mph - N/A   Overcast
5:27 PM 19.0 °F 11.1 °F 14.0 °F 81% 30.14 in 8.0 mi South 5.8 mph - 0.00 in Snow Light Snow
5:53 PM 19.0 °F 13.9 °F 15.1 °F 85% 30.17 in 6.0 mi SSW 3.5 mph - 0.00 in Snow Light Snow
6:53 PM 19.0 °F 12.3 °F 15.1 °F 85% 30.17 in 8.0 mi SW 4.6 mph - 0.00 in Snow Light Snow
7:41 PM 21.9 °F 8.7 °F 12.0 °F 66% 30.12 in 10.0 mi NNE 15.0 mph - 0.00 in   Overcast
7:53 PM 21.9 °F 9.2 °F 12.0 °F 66% 30.15 in 10.0 mi NNE 13.8 mph 21.9 mph 0.00 in   Overcast
8:53 PM 21.0 °F 7.6 °F 9.0 °F 60% 30.15 in 10.0 mi NNE 15.0 mph 24.2 mph N/A   Overcast
9:53 PM 19.9 °F 4.8 °F 8.1 °F 60% 30.16 in 10.0 mi NNE 18.4 mph - N/A   Overcast
10:53 PM 19.0 °F 4.0 °F 6.1 °F 57% 30.17 in 10.0 mi NNE 17.3 mph 28.8 mph N/A   Overcast
11:53 PM 19.0 °F 4.0 °F 1.9 °F 47% 30.18 in 10.0 mi NNE 17.3 mph 23.0 mph N/A   Overcast